Weather in Chuvashskaya Sorma

Russia / Chuvash Republic     55°49′18″N   46°50′00″E
temp.,
°C
wind,
m/s
gust,
m/s
humid.,
%
clouds,
%
prec.,
mm/h
press.,
hPa
HPBL,
m
13 april, tue
tue1300:00+2ese3797100 0.0 1036113
03:00+4se38100100 0.0 1035139
06:00+3se35100100 0.0 103577
09:00+5se35100100 0.0 103486
12:00+11se3410085 0.0 1033123
15:00+15s257451 0.0 1031151
18:00+11sse337026 0.0 103021
21:00+7s45715 0.0 103154
14 april, wed
wed1400:00+6s336965 0.0 103031
03:00+5s336983 0.0 103019
06:00+6sse336946 0.0 102925
09:00+12sse365652 0.0 1028238
12:00+17sse464162 0.0 1027840
15:00+18sse56425 0.0 10251083
18:00+14se48695 0.0 1024154
21:00+11sse488611 0.0 1024134
15 april, thu
thu1500:00+9sse35882 0.0 102280
03:00+9s22890 0.0 102222
06:00+8s22890 0.0 102133
09:00+14s346515 0.0 1020425
12:00+17ssw3445100 0.0 10191417
15:00+18wsw2338100 0.0 10191470
18:00+15w225542 0.0 101911
21:00+12ne1160100 0.0 101910
16 april, fri
fri1600:00+11ene2264100 0.0 101911
03:00+8ne4886100 0.0 1020160
06:00+7ene51091100 0.0 1021306
09:00+9ene7976100 0.0 1022452
12:00+12ene676679 0.0 1022809
15:00+14ene676086 0.0 10231080
18:00+12ene596689 0.0 1023465
21:00+8ene6126346 0.0 1025416
17 april, sat
sat1700:00+5ene5126434 0.0 1026299
03:00+3ene4106927 0.0 1027234
06:00+3ene497239 0.0 1028214
09:00+8ene565215 0.0 1028661
12:00+11ene454072 0.0 10271215
15:00+12ne45373 0.0 10271572
18:00+9nne35480 0.0 1027119
21:00+5nne34605 0.0 102759